This is the latest recevied weather packets stored in our database for station/object WS2Z. If no packets are shown the sender has not sent any weather packets the latest 10 day(s).
| Time | Temp. | Humidity | Pressure | Rain* | Wind** | Luminosity | Snow |
|---|---|---|---|---|---|---|---|
| 1777295097 | 22.78° C | 92% | 1015.4 hPa | 0 mm | - | 168 W/m² | - |
| 1777294794 | 22.78° C | 92% | 1015.5 hPa | 0 mm | - | 149 W/m² | - |
| 1777294489 | 22.78° C | 93% | 1015.5 hPa | 0 mm | - | 96 W/m² | - |
| 1777294187 | 22.22° C | 94% | 1015.6 hPa | 0 mm | - | 37 W/m² | - |
| 1777293884 | 22.22° C | 95% | 1015.4 hPa | 0 mm | - | 37 W/m² | - |
| 1777293584 | 21.67° C | 95% | 1015.5 hPa | 0 mm | - | 35 W/m² | - |
| 1777293280 | 21.67° C | 96% | 1015.4 hPa | 0 mm | - | 34 W/m² | - |
| 1777292980 | 21.11° C | 96% | 1015.3 hPa | 0 mm | - | 33 W/m² | - |
| 1777292675 | 21.11° C | 96% | 1015.4 hPa | 0 mm | - | 32 W/m² | - |
| 1777292371 | 21.11° C | 96% | 1015.2 hPa | 0 mm | - | 31 W/m² | - |
| 1777292068 | 21.11° C | 96% | 1015.2 hPa | 0 mm | - | 30 W/m² | - |
| 1777291764 | 20.56° C | 96% | 1015.2 hPa | 0 mm | - | 29 W/m² | - |
| 1777291461 | 20.56° C | 97% | 1015.2 hPa | 0 mm | - | 28 W/m² | - |
| 1777291158 | 20.56° C | 96% | 1015.2 hPa | 0 mm | - | 28 W/m² | - |
| 1777290855 | 20.56° C | 97% | 1015.2 hPa | 0 mm | - | 25 W/m² | - |
| 1777290551 | 20° C | 97% | 1015.1 hPa | 0 mm | - | 37 W/m² | - |
| 1777290248 | 20° C | 97% | 1015.1 hPa | 0 mm | - | 37 W/m² | - |
| 1777289944 | 19.44° C | 97% | 1014.9 hPa | 0 mm | - | 28 W/m² | - |
| 1777289640 | 19.44° C | 97% | 1014.8 hPa | 0 mm | - | 23 W/m² | - |
| 1777289336 | 19.44° C | 97% | 1014.8 hPa | 0 mm | - | 17 W/m² | - |
| 1777289032 | 18.89° C | 96% | 1014.7 hPa | 0 mm | - | 17 W/m² | - |
| 1777288729 | 18.89° C | 97% | 1014.6 hPa | 0 mm | - | 14 W/m² | - |
| 1777288427 | 18.89° C | 96% | 1014.6 hPa | 0 mm | - | 14 W/m² | - |
| 1777288123 | 18.89° C | 96% | 1014.5 hPa | 0 mm | - | 9 W/m² | - |
| 1777287819 | 18.89° C | 96% | 1014.6 hPa | 0 mm | - | 6 W/m² | - |
* Rain latest hour (hover to see other rain measurements)
** Current wind speed in m/s (hover to see current wind gust speed)